DELTA 1 DEB, 7129

Orbit data source: Space-Track

DELTA 1 DEB, 7129 is space debris in SSO originally from a launch on Tue, 06 Nov 1973 UTC launched from the Air Force Western Test Range (AFWTR). Debris objects in space refer to the collection of defunct objects orbiting the Earth. Examples of debris include non-operational satellites, rocket bodies, and fragments generated from explosions, collisions, or faulty payload assembly.

Loading next visibility...
Identifier
7129, 1973-086CT
Orbit
SSO
Country
Flag of USUS
Related business
Manufacturer
Unknown
Mission
Spacecraft
Bus & Motor
Unknown
Mass
Unknown
Launch date (UTC)
1973-11-06 (53 years ago)
Launch vehicle
Unknown
Launch site
Air Force Western Test Range (AFWTR)
Object type
Payload
Rocket body
Debris
Shape & HBR
Unknown shape, 0.2 m
Radar Cross Section
Medium (>0.1 m² and <1 m²)

Expand to show TLE details & history
Last TLE update: 3 days ago

TLE from 3 days ago
0 DELTA 1 DEB
1 07129U 73086CT  26261.87268361 -.00000310  00000-0 -28973-2 0  9998
2 07129 102.0147 111.3140 0243786 175.1304 198.3649 12.04469285318630
Epoch: 2026-09-18T20:56Z
TLE epoch observation values (Epoch: 2026-09-18T20:56:39.863Z)
Latitude
12.32421°
Longitude
156.70598°
Altitude
1,849.155 km
Speed
6.881 km/s
True Right ascension
07h 14m 38s
True Declination
12° 15' 44"
Sunlit
Object was in daylight at epoch
Visualization orbit readout
Latitude
Unknown
Longitude
Unknown
Altitude
Unknown
Speed
Unknown
Apparent Right ascension
Unknown
Apparent Declination
Unknown
Sunlit
N/A
Visualization observer readout
Local Sidereal Time
12:52:08
Azimuth
Unknown
Elevation
Unknown
Doppler factor
Unknown
Orbital elements
Apogee altitude
1,854.455 km
Perigee altitude
1,462.61 km
Semi-major axis
8,036.669 km
Eccentricity
0.02438
Inclination
102.0147°
RAAN
111.314°
Arg. of periapsis
175.1304°
True anomaly
197.50953°
Mean anomaly
198.3649°
Eccentric anomaly
197.93478°
Mean motion
3.01251 °/min
Orbital period
119.5 mins
BSTAR
-0.0028973
Loading maneuver chart data...
Computing Atmospheric mass density...

Documentation

Showing up to 5 results
|